Weather History for Mosby, MO

Change the Weather History Date:

Thursday, April 4, 2013

  Actual Average (KMKC) Record (KMKC)
Temperature  
Mean Temperature 46 °F -  
Max Temperature 60 °F 60 °F 81 °F (2005)
Min Temperature 33 °F 41 °F 28 °F (2002)
Degree Days  
Heating Degree Days 18    
Moisture  
Dew Point 29 °F    
Average Humidity 58    
Maximum Humidity 87    
Minimum Humidity 25    
Precipitation  
Precipitation 0.00 in - - ()
Sea Level Pressure  
Sea Level Pressure 30.15 in    
Wind  
Wind Speed 1 mph (NW)    
Max Wind Speed 9 mph    
Max Gust Speed -    
Visibility 10 miles    
Events      
Averages and records for this station are not official NWS values.
T = Trace of Precipitation, MM = Missing Value Source: NWS Daily Summary

Daily Weather History Graph

Daily Weather History Graph

Search for Another Location

Airport:

Trip Planner

Search our weather history database for the weather conditions in past years. The results will help you decide how hot, cold, wet, or windy it might be!

Date:

Astronomy

Apr. 04, 2013 Rise Set
Actual Time 6:56 AM CDT 7:44 PM CDT
Civil Twilight 6:29 AM CDT 8:11 PM CDT
Nautical Twilight 5:57 AM CDT 8:43 PM CDT
Astronomical Twilight 5:24 AM CDT 9:17 PM CDT
Moon 3:21 AM CDT (4/4) 2:05 PM CDT (4/4)
Length of Visible Light 13h 42m
Length of Day
12h 47m
Waning Crescent, 33% of the Moon is Illuminated
Apr 4
Waning Crescent
Apr 10
New
Apr 18
First Quarter
Apr 25
Full
May 2
Last Quarter

Hourly Weather History & Observations

Time (CDT) Temp. Windchill Dew Point Humidity Pressure Visibility Wind Dir Wind Speed Gust Speed Precip Events Conditions
12:15 AM 35.6 °F - 30.2 °F 81% 30.25 in 10.0 mi Calm Calm - N/A   Clear
12:35 AM 35.6 °F - 28.4 °F 75% 30.25 in 10.0 mi Calm Calm - N/A   Clear
12:55 AM 35.6 °F - 30.2 °F 81% 30.24 in 10.0 mi Calm Calm - N/A   Clear
1:15 AM 33.8 °F - 30.2 °F 87% 30.24 in 10.0 mi Calm Calm - N/A   Clear
1:35 AM 33.8 °F - 30.2 °F 87% 30.23 in 10.0 mi Calm Calm - N/A   Clear
1:55 AM 33.8 °F - 30.2 °F 87% 30.23 in 10.0 mi Calm Calm - N/A   Clear
2:15 AM 33.8 °F - 28.4 °F 81% 30.23 in 10.0 mi Calm Calm - N/A   Clear
2:35 AM 33.8 °F - 28.4 °F 81% 30.23 in 10.0 mi Calm Calm - N/A   Clear
2:55 AM 33.8 °F - 30.2 °F 87% 30.22 in 10.0 mi Calm Calm - N/A   Clear
3:15 AM 33.8 °F - 30.2 °F 87% 30.21 in 10.0 mi Calm Calm - N/A   Clear
3:35 AM 33.8 °F - 30.2 °F 87% 30.21 in 10.0 mi Calm Calm - N/A   Clear
3:55 AM 35.6 °F - 30.2 °F 81% 30.21 in 10.0 mi Calm Calm - N/A   Clear
4:15 AM 35.6 °F - 30.2 °F 81% 30.20 in 10.0 mi Calm Calm - N/A   Scattered Clouds
4:35 AM 35.6 °F - 30.2 °F 81% 30.20 in 10.0 mi Calm Calm - N/A   Mostly Cloudy
4:55 AM 35.6 °F - 30.2 °F 81% 30.20 in 10.0 mi Calm Calm - N/A   Mostly Cloudy
5:15 AM 35.6 °F - 32.0 °F 87% 30.19 in 10.0 mi Calm Calm - N/A   Scattered Clouds
5:35 AM 35.6 °F - 30.2 °F 81% 30.20 in 10.0 mi Calm Calm - N/A   Scattered Clouds
5:55 AM 35.6 °F - 30.2 °F 81% 30.20 in 10.0 mi Calm Calm - N/A   Scattered Clouds
6:15 AM 35.6 °F - 30.2 °F 81% 30.19 in 10.0 mi Calm Calm - N/A   Mostly Cloudy
6:35 AM 35.6 °F - 30.2 °F 81% 30.19 in 10.0 mi Calm Calm - N/A   Overcast
6:55 AM 37.4 °F - 30.2 °F 75% 30.20 in 10.0 mi Calm Calm - N/A   Overcast
7:15 AM 35.6 °F - 32.0 °F 87% 30.20 in 10.0 mi Calm Calm - N/A   Overcast
7:35 AM 35.6 °F - 32.0 °F 87% 30.20 in 10.0 mi Calm Calm - N/A   Overcast
7:55 AM 37.4 °F - 32.0 °F 81% 30.19 in 10.0 mi Calm Calm - N/A   Overcast
8:15 AM 37.4 °F - 32.0 °F 81% 30.19 in 10.0 mi Calm Calm - N/A   Scattered Clouds
8:35 AM 39.2 °F - 32.0 °F 75% 30.19 in 10.0 mi Calm Calm - N/A   Clear
8:55 AM 39.2 °F - 32.0 °F 75% 30.19 in 10.0 mi Calm Calm - N/A   Clear
9:15 AM 41.0 °F - 30.2 °F 65% 30.18 in 10.0 mi Calm Calm - N/A   Clear
9:35 AM 42.8 °F - 30.2 °F 61% 30.18 in 10.0 mi Calm Calm - N/A   Clear
9:55 AM 44.6 °F - 28.4 °F 53% 30.17 in 10.0 mi Calm Calm - N/A   Clear
10:15 AM 46.4 °F 44.3 °F 26.6 °F 46% 30.17 in 10.0 mi WNW 4.6 mph - N/A   Clear
10:35 AM 48.2 °F - 26.6 °F 43% 30.17 in 10.0 mi WNW 5.8 mph - N/A   Clear
10:55 AM 50.0 °F - 23.0 °F 35% 30.18 in 10.0 mi NNW 6.9 mph - N/A   Clear
11:35 AM 51.8 °F - 23.0 °F 33% 30.17 in 10.0 mi North 8.1 mph - N/A   Clear
11:55 AM 51.8 °F - 23.0 °F 33% 30.16 in 10.0 mi North 5.8 mph - N/A   Clear
12:15 PM 51.8 °F - 23.0 °F 33% 30.15 in 10.0 mi NNW 5.8 mph - N/A   Clear
12:35 PM 53.6 °F - 23.0 °F 30% 30.14 in 10.0 mi Calm Calm - N/A   Clear
12:55 PM 53.6 °F - 24.8 °F 33% 30.14 in 10.0 mi North 6.9 mph - N/A   Clear
1:15 PM 53.6 °F - 26.6 °F 35% 30.13 in 10.0 mi NW 4.6 mph - N/A   Clear
1:35 PM 55.4 °F - 23.0 °F 29% 30.12 in 10.0 mi NNE 4.6 mph - N/A   Clear
1:55 PM 55.4 °F - 24.8 °F 31% 30.12 in 10.0 mi North 8.1 mph - N/A   Clear
2:15 PM 57.2 °F - 24.8 °F 29% 30.11 in 10.0 mi NNW 5.8 mph - N/A   Clear
2:55 PM 57.2 °F - 23.0 °F 27% 30.09 in 10.0 mi Calm Calm - N/A   Clear
3:15 PM 59.0 °F - 23.0 °F 25% 30.09 in 10.0 mi Calm Calm - N/A   Clear
3:35 PM 59.0 °F - 23.0 °F 25% 30.08 in 10.0 mi NW 9.2 mph - N/A   Clear
3:55 PM 59.0 °F - 23.0 °F 25% 30.07 in 10.0 mi NNW 4.6 mph - N/A   Clear
4:15 PM 60.8 °F - 24.8 °F 25% 30.07 in 10.0 mi WSW 4.6 mph - N/A   Clear
4:35 PM 60.8 °F - 24.8 °F 25% 30.07 in 10.0 mi North 9.2 mph - N/A   Clear
4:55 PM 60.8 °F - 24.8 °F 25% 30.06 in 10.0 mi West 4.6 mph - N/A   Clear
5:15 PM 60.8 °F - 26.6 °F 27% 30.06 in 10.0 mi West 4.6 mph - N/A   Clear
5:35 PM 60.8 °F - 24.8 °F 25% 30.06 in 10.0 mi NW 3.5 mph - N/A   Clear
5:55 PM 60.8 °F - 26.6 °F 27% 30.06 in 10.0 mi NW 3.5 mph - N/A   Clear
6:15 PM 60.8 °F - 26.6 °F 27% 30.06 in 10.0 mi West 6.9 mph - N/A   Clear
6:55 PM 60.8 °F - 26.6 °F 27% 30.06 in 10.0 mi NNW 5.8 mph - N/A   Clear
7:15 PM 60.8 °F - 28.4 °F 29% 30.06 in 10.0 mi NNW 3.5 mph - N/A   Clear
7:35 PM 59.0 °F - 30.2 °F 34% 30.06 in 10.0 mi Calm Calm - N/A   Clear
7:55 PM 57.2 °F - 28.4 °F 33% 30.07 in 10.0 mi Calm Calm - N/A   Unknown
8:35 PM 51.8 °F - 32.0 °F 47% 30.07 in 10.0 mi Calm Calm - N/A   Clear
8:55 PM 50.0 °F - 32.0 °F 50% 30.07 in 10.0 mi Calm Calm - N/A   Clear
9:15 PM 48.2 °F - 33.8 °F 58% 30.08 in 10.0 mi Calm Calm - N/A   Clear
9:35 PM 46.4 °F - 33.8 °F 62% 30.08 in 10.0 mi Calm Calm - N/A   Clear
9:55 PM 44.6 °F - 33.8 °F 66% 30.08 in 10.0 mi Calm Calm - N/A   Clear
10:15 PM 44.6 °F - 33.8 °F 66% 30.09 in 10.0 mi Calm Calm - N/A   Clear
10:35 PM 42.8 °F - 33.8 °F 70% 30.09 in 10.0 mi Calm Calm - N/A   Clear
10:55 PM 41.0 °F - 33.8 °F 76% 30.09 in 10.0 mi Calm Calm - N/A   Clear
11:15 PM 41.0 °F - 33.8 °F 76% 30.09 in 10.0 mi Calm Calm - N/A   Clear
11:35 PM 41.0 °F - 35.6 °F 81% 30.09 in 10.0 mi Calm Calm - N/A   Clear
11:55 PM 41.0 °F - 32.0 °F 70% 30.10 in 10.0 mi Calm Calm - N/A   Clear